Regional Weather Roundup
Issued by NWS

Home | Current Version | Previous Version | Graphics & Text | Print | Product List | Glossary On
Versions: 1 2 3 4 5 6 7 8 9 10 11 12 13 14 15 16 17 18 19 20 21 22 23 24 25 26 27 28 29 30 31 32 33 34 35 36 37 38 39 40 41 42 43 44 45 46 47 48 49 50
000
ASUS44 KMEG 192310
RWRTN
TENNESSEE HOURLY STATE WEATHER ROUNDUP
NATIONAL WEATHER SERVICE MEMPHIS TN
600 PM CDT TUE AUG 19 2014

TNZ002-004-019-021-049-052-054-088>092-200000-
WEST TENNESSEE

CITY           SKY/WX    TMP DP  RH WIND       PRES   REMARKS
MEMPHIS INTL   MOSUNNY   91  73  55 W7        29.85R HX  99
NWS MEMPHIS      N/A     92 N/A N/A MISG        N/A
JACKSON        SUNNY     89  71  55 SW8       29.84R HX  95
DYERSBURG      MOSUNNY   88  68  51 SW5       29.84R HX  91
UNION CITY     SUNNY     84  75  74 S3        29.82S HX  92
PARIS          MOSUNNY   84  72  65 SW6       29.86R
HUNTINGDON     SUNNY     85  71  62 W5        29.85R HX  90
LEXINGTON      SUNNY     88  72  58 S8        29.84F HX  94
SAVANNAH       SUNNY     90  73  58 SW8       29.86S HX  98
$$

TNZ008-025-027-028-033-062-065-066-200000-
NORTH MIDDLE TENNESSEE

CITY           SKY/WX    TMP DP  RH WIND       PRES   REMARKS
NASHVILLE      PTSUNNY   88  72  58 VRB6      29.84F HX  94
PORTLAND       PTSUNNY   86  72  62 W6        29.84S HX  92
CLARKSVILLE    PTSUNNY   87  74  64 SW8       29.84R HX  95
SMYRNA         MOSUNNY   89  72  57 W8        29.86S HX  96
MURFREESBORO   MOSUNNY   89  70  53 SW6       29.85S HX  94
COOKEVILLE     SUNNY     88  72  58 CALM      29.89S HX  94
GALLATIN       MOSUNNY   90  73  57 CALM      29.85S HX  98
CROSSVILLE     SUNNY     80  67  64 W9        29.95R
$$

TNZ061-075-076-078-094-096-097-200000-
SOUTH MIDDLE TENNESSEE

CITY           SKY/WX    TMP DP  RH WIND       PRES   REMARKS
LEWISBURG      PTSUNNY   88  72  58 SW3       29.88R HX  94
FAYETTEVILLE   MOSUNNY   84  70  61 W6        29.91R
TULLAHOMA      MOSUNNY   84  70  61 W7        29.92R
WINCHESTER     MOSUNNY   86  72  62 CALM      29.91R HX  92
MCMINNVILLE    SUNNY     84  75  74 W3        29.90R HX  92
COLUMBIA       MOSUNNY   90  75  62 SW8       29.86S HX 100
SHELBYVILLE    MOSUNNY   88  73  62 W7        29.90R HX  96
$$

TNZ017-018-042-046-047-200000-
NORTHEAST TENNESSEE

CITY           SKY/WX    TMP DP  RH WIND       PRES   REMARKS
TRI CITIES     MOSUNNY   82  65  56 W6        29.91R
ELIZABETHTON   CLEAR     79  68  69 CALM      29.91S
$$

TNZ012-013-036-069-073-074-200000-
CENTRAL EAST TENNESSEE

CITY           SKY/WX    TMP DP  RH WIND       PRES   REMARKS
KNOXVILLE      MOSUNNY   82  69  64 SW6       29.88S
OAK RIDGE      PTSUNNY   79  70  74 VRB7      29.90R
GATLINBURG     CLEAR     84  68  58 W3        29.88S
MORRISTOWN     CLEAR     82  70  65 NW5       29.91F
$$

TNZ083-085-099-200000-
SOUTHEAST TENNESSEE

CITY           SKY/WX    TMP DP  RH WIND       PRES   REMARKS
CHATTANOOGA    MOSUNNY   88  66  48 NW8       29.89R HX  90
$$

SKY/WX REPORTED AS FAIR MEANS FEW OR NO CLOUDS BELOW
12 THOUSAND FEET.



USA.gov is the U.S. government's official web portal to all federal, state and local government web resources and services.